Home > Weather > Slough > Past weeks

Flag for United Kingdom Weather for the Past 2 Weeks in Slough, England, United Kingdom

Now
50 °F

Scattered clouds.


Feels Like: 47 °F
Forecast: 35 / 58 °F
Wind: 8 mph from Northwest

Location: London City Airport

Current Time: Apr 30, 2016 at 12:18:33 PM

Latest Report: Apr 30, 2016 at 10:50 AM


Visibility: N/A

Pressure: 30.15 "Hg

Humidity: 47%

Dew Point: 30 °F

Location of SloughLocation

Historic Weather in Slough — Graph

°F

Slough Temperature Yesterday

Maximum temperature yesterday: 52 °F (at 11:20 AM)
Minimum temperature yesterday: 43 °F (at 5:20 AM)
Average temperature yesterday: 48 °F

High & Low Weather Summary for the Past Weeks

 TemperatureHumidityPressure
High59 °F (Apr 19, 3:20 PM)94% (Apr 15, 5:50 PM)30.45 "Hg (Apr 15, 5:50 PM)
Low37 °F (Apr 17, 5:20 AM)32% (Apr 27, 4:20 PM)29.42 "Hg (Apr 15, 6:50 PM)
Average47 °F66%30.01 "Hg
* Reported Apr 15 10:20 AM — Apr 30 10:50 AM, Slough, Weather by CustomWeather, © 2016

Note: Actual official high and low records may vary slightly from our data, if they occured in-between our weather recording intervals... More about our weather records

Advertising

Slough Weather History for the Previous 24 Hours

Scroll right to see more
 ConditionsComfort  
Time TempWeatherWind HumidityBarometerVisibility
10:50 AM
Sat, Apr 30
50 °FScattered clouds.8 mph47%30.15 "HgN/A
10:20 AM50 °FScattered clouds.8 mph54%30.12 "HgN/A
9:50 AM50 °FScattered clouds.6 mph58%30.12 "HgN/A
9:20 AM48 °FPassing clouds.7 mph62%30.12 "HgN/A
8:50 AM46 °FPassing clouds.6 mph66%30.12 "HgN/A
7:50 AM43 °FPassing clouds.6 mph76%30.12 "HgN/A
7:20 AM43 °FSunny.8 mph71%30.09 "Hg10 mi
6:50 AM41 °FSunny.6 mph76%30.09 "Hg10 mi
6:20 AM41 °FClear.5 mph76%30.09 "Hg10 mi
5:50 AM41 °FQuite cool.6 mph76%30.07 "HgN/A
5:20 AM41 °FQuite cool.7 mph76%30.07 "HgN/A
4:50 AM41 °FQuite cool.6 mph76%30.07 "HgN/A
4:20 AM41 °FQuite cool.5 mph76%30.04 "HgN/A
3:50 AM41 °FQuite cool.6 mph76%30.04 "HgN/A
3:20 AM43 °FQuite cool.6 mph71%30.04 "HgN/A
2:50 AM43 °FQuite cool.7 mph71%30.04 "HgN/A
2:20 AM43 °FQuite cool.7 mph71%30.01 "HgN/A
1:50 AM43 °FQuite cool.6 mph71%30.01 "HgN/A
12:50 AM45 °FQuite cool.7 mph71%30.01 "HgN/A
12:20 AM45 °FQuite cool.7 mph66%29.98 "HgN/A
11:50 PM
Fri, Apr 29
46 °FCool.8 mph62%29.98 "HgN/A
11:20 PM46 °FCool.6 mph62%29.98 "HgN/A
10:50 PM46 °FCool.7 mph57%29.95 "HgN/A
10:20 PM48 °FCool.6 mph54%29.95 "HgN/A
9:50 PM48 °FCool.8 mph54%29.95 "HgN/A
9:20 PM48 °FCool.13 mph58%29.95 "HgN/A
8:50 PM50 °FSunny.12 mph58%29.92 "Hg10 mi
8:20 PM50 °FSunny.14 mph47%29.92 "Hg10 mi
7:50 PM50 °FSunny.10 mph50%29.89 "Hg10 mi
7:20 PM50 °FSunny.15 mph43%29.89 "Hg10 mi
6:50 PM52 °FSunny.15 mph44%29.86 "Hg10 mi
6:20 PM52 °FSunny.20 mph47%29.86 "Hg10 mi
5:50 PM52 °FSunny.18 mph44%29.86 "Hg10 mi
5:20 PM52 °FPassing clouds.17 mph47%29.86 "HgN/A
4:50 PM52 °FPassing clouds.15 mph50%29.86 "HgN/A
4:20 PM48 °FScattered showers. Passing clouds.14 mph66%29.86 "HgN/A
3:50 PM46 °FScattered showers. Passing clouds.24 mph66%29.86 "HgN/A
3:20 PM50 °FScattered showers. Passing clouds.14 mph62%29.83 "HgN/A
2:50 PM48 °FThunderstorms. Scattered clouds.12 mph62%29.83 "HgN/A
2:20 PM50 °FThunderstorms. Scattered clouds.15 mph50%29.83 "HgN/A
1:50 PM50 °FScattered showers. Passing clouds.18 mph54%29.83 "HgN/A
1:20 PM48 °FScattered showers. Passing clouds.16 mph66%29.83 "HgN/A
12:50 PM52 °FScattered showers. Passing clouds.20 mph47%29.80 "HgN/A
12:20 PM46 °FScattered showers. Scattered clouds.23 mph66%29.83 "HgN/A
Weather by CustomWeather, © 2016

See weather overviewHow to use our weather pages